Wind_Speed
20 19 19 20 20 19 19 19 19 19 19 19 19 19 20 20 20 21 21 22 22 23 23 23 24 25 25 25 25 24 24 25 24 23 24 25 26 25 25 26 27 27 27
20 19 20 20 20 20 20 19 19 19 19 19 19 19 19 19 20 20 21 21 22 22 23 23 23 23 23 24 24 23 23 24 23 23 23 24 24 25 25 25 26 27 27
20 20 20 20 20 20 20 19 19 19 20 20 20 19 19 20 20 20 20 21 22 23 23 23 23 23 23 24 23 23 23 22 22 22 23 22 23 23 23 24 24 25 27
21 20 20 20 20 21 20 19 19 20 20 20 19 19 19 20 20 21 21 22 23 23 23 23 24 24 23 23 22 21 21 21 21 21 21 21 22 22 23 23 24 25 26
21 20 20 20 20 20 20 19 19 20 20 20 19 19 19 20 20 21 22 22 23 23 23 23 23 23 22 22 21 20 20 20 20 20 20 21 21 22 23 23 24 24 24
20 20 20 20 20 20 19 19 19 19 19 19 19 19 20 20 21 22 22 22 22 23 23 23 22 22 21 21 20 20 19 18 19 19 20 20 20 21 22 23 23 24 23
21 20 20 20 19 19 19 18 18 19 19 19 20 20 20 20 21 21 21 21 21 21 21 21 21 21 21 20 19 19 18 18 18 19 19 19 20 20 21 22 22 22 23
21 20 20 19 19 19 19 18 18 18 19 20 20 20 20 20 20 20 19 19 19 20 20 20 20 21 20 19 18 18 18 17 18 18 19 19 19 19 20 20 20 21 21
20 20 20 20 19 18 18 18 18 19 20 20 20 20 20 19 18 18 18 19 19 20 21 20 20 20 20 19 18 18 17 17 17 17 17 17 17 17 18 18 18 19 19
20 19 19 19 18 18 18 18 19 19 20 20 20 20 19 18 18 18 18 19 20 21 21 21 21 21 20 19 18 18 17 17 17 17 17 17 17 16 17 17 17 18 18
20 19 19 19 18 18 18 19 19 19 20 20 19 18 18 18 19 19 19 20 21 21 22 21 21 21 20 20 19 18 18 18 17 16 16 17 16 16 17 18 18 18 18
20 19 19 18 18 18 19 19 20 20 20 20 19 19 18 18 18 19 19 20 21 22 22 22 22 21 21 20 19 18 18 17 17 17 17 17 17 17 17 18 19 18 18
20 19 19 19 19 19 19 20 20 20 19 20 20 19 19 19 19 20 20 21 21 22 22 22 22 21 20 19 18 17 17 17 17 17 17 17 17 17 17 17 17 17 17
19 19 19 18 19 19 19 20 19 19 19 19 19 19 20 20 20 20 20 20 21 20 20 21 21 20 19 18 18 17 17 17 17 17 18 17 17 17 16 16 16 16 16
19 19 18 19 19 20 20 20 19 19 19 19 20 20 20 20 20 20 20 20 20 20 20 20 20 21 20 19 18 17 17 17 18 18 18 18 18 18 17 17 17 17 17
20 20 20 20 20 20 20 20 19 18 18 18 19 20 20 21 20 20 20 20 20 20 20 20 20 20 20 19 18 18 18 18 18 18 18 19 19 18 17 18 18 17 17
21 21 21 21 20 20 20 19 18 17 17 18 18 19 20 21 20 20 20 20 19 19 20 20 20 20 19 19 19 19 19 19 18 18 18 19 18 17 17 17 17 18 18
21 21 21 21 21 20 20 19 18 17 17 18 18 19 20 20 20 20 20 20 19 20 20 20 19 19 19 19 19 19 19 19 19 19 19 19 18 17 17 17 17 18 18
21 21 21 21 21 21 20 19 17 17 18 18 18 19 19 20 20 20 20 20 20 20 19 19 19 19 19 20 19 19 19 19 19 19 19 19 18 18 18 17 17 17 18
21 21 22 21 21 20 20 19 18 17 17 18 19 18 19 19 19 19 19 19 19 19 19 19 19 19 19 20 20 20 20 19 19 19 19 18 18 18 18 18 18 19 19
21 21 21 21 21 20 20 19 18 17 17 18 18 18 18 18 18 18 18 19 19 19 19 20 20 20 20 20 20 20 20 19 19 19 19 19 19 19 18 19 19 19 19
21 20 20 20 20 20 20 19 18 18 18 18 18 18 18 18 18 18 19 19 19 19 20 20 20 20 21 21 21 20 20 20 20 20 20 20 19 19 19 19 18 18 18
20 20 20 20 20 19 19 18 18 18 18 17 18 18 17 17 17 17 18 19 19 19 20 21 21 21 22 22 21 21 21 21 21 21 20 20 20 20 20 19 18 18 18
19 19 19 19 19 19 18 18 18 18 17 17 17 17 17 17 17 18 19 19 20 20 21 22 22 22 22 23 22 21 21 21 21 21 21 21 20 20 20 19 18 18 18
19 19 19 19 18 18 18 18 18 18 18 17 17 17 18 18 18 19 19 20 20 20 21 22 23 23 23 23 23 22 22 22 22 22 21 21 20 20 19 18 18 18 18
20 20 19 19 19 18 18 18 18 18 17 18 18 18 19 19 19 20 20 20 20 20 21 22 23 24 23 23 23 22 22 21 22 22 22 21 20 19 19 18 18 18 18
Wind_Direction
316 316 316 314 313 311 310 309 309 310 309 307 306 306 305 305 305 307 309 310 313 314 312 308 306 303 299 298 296 294 289 286 284 281 276 275 276 274 271 269 266 264 265
321 318 317 314 312 310 309 308 309 310 309 308 306 306 305 306 308 310 311 313 315 315 314 312 310 307 303 301 298 296 292 288 285 284 282 279 276 273 270 268 267 265 264
324 321 319 318 316 314 312 311 311 311 310 308 308 307 307 308 310 312 312 314 315 315 314 313 311 310 306 303 299 296 294 289 287 287 283 280 277 273 268 269 269 266 265
326 324 321 321 320 318 316 314 313 312 312 311 308 309 308 309 311 312 313 313 315 315 315 314 313 314 310 305 302 298 295 292 289 287 283 281 278 274 271 271 270 267 266
325 324 321 321 322 321 319 316 314 312 312 314 313 311 309 311 313 314 314 315 316 316 316 317 315 315 315 312 307 302 299 296 292 289 288 286 282 278 275 273 271 267 267
323 323 321 321 321 321 320 319 316 315 315 315 314 312 311 312 314 315 316 317 318 318 318 318 318 318 316 314 312 307 303 301 298 294 293 292 288 284 280 279 275 269 267
321 321 321 320 320 320 319 319 319 319 319 319 317 315 314 314 315 316 317 319 320 321 320 319 321 322 320 317 315 312 308 305 305 303 300 297 293 288 285 282 279 276 273
319 320 320 320 318 319 318 317 319 321 323 323 321 320 318 316 317 319 321 323 324 326 326 323 324 323 323 321 319 316 312 309 309 308 305 302 298 293 289 287 283 281 278
319 320 321 321 320 322 322 321 321 321 322 323 322 321 320 320 321 322 322 323 325 327 328 326 323 323 322 322 322 321 317 315 313 311 309 307 304 300 298 294 290 287 281
321 322 323 322 322 323 324 323 322 323 324 323 322 322 321 322 321 321 322 323 325 326 326 325 324 323 322 321 321 322 320 320 318 314 312 310 307 305 303 301 298 294 290
321 322 324 324 322 321 321 322 322 323 324 325 324 323 321 321 321 321 321 323 324 326 326 326 326 326 325 324 323 323 323 323 321 318 314 313 310 308 305 302 301 299 297
320 321 321 322 322 320 319 321 321 321 322 324 325 323 322 321 322 322 322 323 323 325 326 327 327 327 327 326 324 323 325 325 325 322 319 317 314 311 309 306 303 300 299
317 318 318 318 319 320 319 319 320 320 320 324 325 325 324 323 321 322 323 323 323 324 325 327 328 327 328 329 326 325 326 325 324 323 322 321 318 315 312 309 307 304 301
312 313 314 315 317 319 319 319 320 320 321 323 324 324 325 324 323 323 323 323 323 324 325 327 329 330 331 331 329 328 327 326 326 327 326 324 323 320 317 315 314 310 306
308 309 311 313 316 318 318 318 318 318 320 322 323 324 325 326 325 324 324 323 323 324 325 326 327 329 330 330 329 328 328 328 328 328 328 327 324 321 318 316 314 312 309
306 306 307 310 312 315 317 318 317 318 320 322 324 326 327 327 326 325 324 324 323 324 325 326 327 327 327 327 327 326 327 328 329 330 328 326 325 323 320 319 317 315 313
303 304 305 306 308 310 314 317 317 317 319 322 325 326 326 326 326 326 327 327 326 326 326 326 325 326 328 328 327 326 325 325 326 327 325 323 324 323 324 324 321 318 316
298 300 303 305 306 307 309 311 313 315 317 320 322 325 326 326 325 326 327 328 327 327 326 326 327 328 329 327 325 326 325 324 324 324 323 322 321 322 321 320 319 317 317
295 297 301 303 303 304 304 307 309 313 315 316 318 321 324 326 325 326 326 327 327 327 326 326 327 328 329 330 329 327 325 323 323 323 322 321 320 319 319 318 317 317 317
292 295 297 300 301 301 302 303 305 309 312 313 316 318 320 322 324 325 327 329 330 329 329 329 328 329 329 330 330 330 329 327 324 323 323 321 320 320 319 318 317 316 317
290 293 295 297 298 300 301 301 302 305 309 312 314 318 319 321 323 325 327 329 330 332 333 331 330 329 329 329 330 329 329 328 326 326 324 323 322 321 320 319 317 318 318
291 294 297 300 300 300 301 300 301 304 308 309 310 313 317 318 321 326 329 329 329 331 332 332 331 330 330 330 330 329 329 328 325 323 322 321 319 320 320 319 317 317 317
290 295 297 298 298 297 296 296 299 302 307 310 312 313 313 315 317 319 324 328 330 330 330 331 332 332 331 330 330 329 328 327 325 322 320 318 316 317 318 317 316 316 315
289 292 296 299 299 298 298 297 297 300 305 309 311 313 315 316 315 315 317 322 326 327 327 327 328 329 329 329 329 328 328 328 328 325 323 320 317 316 316 315 314 313 313
289 291 294 297 298 297 297 299 299 299 303 306 307 309 312 314 314 312 313 317 320 323 324 325 326 327 328 328 328 327 326 327 328 329 327 324 321 319 317 316 314 312 311
288 290 293 295 296 297 297 299 300 299 301 304 306 307 310 312 312 311 313 315 317 319 321 323 325 327 328 328 328 327 326 326 328 329 328 325 322 321 319 317 315 313 312
Height
5783 5780 5777 5775 5772 5770 5767 5765 5762 5760 5758 5756 5754 5752 5750 5747 5745 5743 5740 5737 5734 5731 5728 5725 5722 5718 5716 5713 5711 5709 5707 5706 5706 5706 5706 5706 5706 5706 5706 5707 5707 5708 5708
5780 5777 5774 5771 5769 5766 5763 5761 5759 5756 5754 5752 5750 5748 5745 5743 5740 5738 5735 5732 5729 5726 5723 5719 5716 5713 5709 5707 5704 5702 5701 5699 5699 5699 5699 5698 5698 5698 5698 5698 5699 5699 5700
5777 5774 5771 5768 5765 5762 5759 5757 5755 5752 5750 5748 5746 5743 5741 5738 5736 5733 5730 5727 5724 5721 5717 5714 5711 5707 5704 5701 5698 5696 5694 5693 5692 5691 5691 5691 5691 5690 5690 5690 5690 5691 5692
5774 5771 5768 5764 5761 5759 5756 5753 5751 5749 5746 5744 5741 5739 5737 5734 5731 5728 5725 5722 5719 5716 5712 5709 5705 5702 5698 5695 5692 5690 5688 5687 5686 5685 5685 5684 5684 5684 5683 5683 5683 5683 5683
5771 5767 5764 5761 5758 5755 5753 5750 5747 5745 5742 5740 5737 5735 5732 5729 5727 5723 5720 5717 5714 5710 5707 5703 5700 5696 5693 5689 5687 5684 5683 5681 5680 5679 5678 5678 5677 5676 5676 5675 5675 5675 5675
5768 5764 5761 5758 5755 5752 5749 5747 5744 5741 5739 5736 5733 5730 5728 5725 5722 5718 5715 5712 5709 5705 5701 5698 5694 5691 5688 5685 5682 5679 5678 5676 5675 5673 5672 5671 5670 5669 5668 5667 5667 5667 5667
5764 5761 5758 5755 5751 5749 5746 5743 5740 5738 5735 5732 5729 5726 5723 5720 5717 5714 5711 5708 5704 5701 5697 5694 5690 5687 5683 5680 5678 5675 5673 5671 5670 5668 5666 5665 5663 5662 5661 5660 5659 5659 5659
5760 5757 5753 5750 5747 5744 5742 5739 5737 5734 5731 5728 5725 5722 5719 5716 5713 5710 5707 5704 5701 5698 5694 5690 5687 5683 5680 5676 5674 5671 5669 5667 5665 5662 5661 5659 5657 5655 5654 5653 5652 5651 5651
5756 5753 5749 5746 5743 5741 5738 5735 5733 5731 5728 5725 5722 5719 5715 5712 5709 5707 5704 5701 5698 5694 5690 5687 5683 5680 5676 5673 5670 5667 5665 5662 5660 5657 5655 5653 5651 5650 5648 5646 5645 5644 5644
5752 5749 5746 5743 5740 5738 5735 5733 5730 5727 5724 5721 5718 5715 5712 5709 5706 5703 5700 5697 5694 5691 5687 5683 5679 5676 5672 5669 5666 5663 5661 5658 5655 5652 5650 5648 5646 5644 5642 5641 5639 5638 5637
5749 5746 5743 5741 5738 5735 5733 5730 5727 5724 5721 5718 5715 5712 5709 5706 5703 5700 5697 5693 5690 5687 5683 5679 5675 5671 5668 5665 5662 5659 5656 5653 5651 5648 5646 5644 5641 5640 5638 5636 5634 5632 5631
5746 5744 5741 5738 5735 5732 5730 5727 5724 5721 5718 5715 5711 5708 5705 5703 5700 5696 5693 5690 5686 5683 5679 5676 5672 5668 5664 5661 5658 5655 5652 5650 5647 5644 5642 5639 5637 5635 5633 5631 5629 5627 5625
5743 5741 5738 5735 5732 5729 5727 5724 5721 5718 5715 5711 5708 5705 5702 5699 5696 5693 5689 5686 5683 5679 5676 5672 5669 5665 5661 5658 5655 5652 5649 5646 5643 5641 5638 5635 5633 5631 5628 5626 5624 5622 5620
5740 5738 5735 5732 5729 5726 5724 5720 5717 5715 5711 5708 5705 5702 5699 5695 5692 5689 5686 5682 5679 5676 5672 5669 5665 5662 5658 5655 5652 5648 5646 5643 5640 5637 5634 5632 5629 5627 5624 5622 5619 5617 5615
5736 5734 5732 5729 5726 5723 5720 5717 5714 5711 5708 5705 5702 5699 5695 5692 5689 5685 5682 5679 5675 5672 5669 5666 5662 5659 5655 5652 5649 5646 5643 5640 5637 5634 5631 5628 5625 5622 5620 5618 5615 5613 5611
5732 5730 5728 5725 5723 5720 5717 5714 5711 5708 5705 5702 5699 5695 5692 5689 5685 5682 5678 5675 5672 5669 5666 5662 5659 5656 5652 5649 5646 5643 5640 5637 5634 5630 5627 5624 5621 5619 5616 5613 5611 5608 5606
5727 5725 5723 5721 5719 5716 5713 5710 5707 5705 5702 5699 5695 5692 5689 5685 5682 5679 5675 5672 5669 5666 5663 5659 5656 5652 5649 5645 5642 5639 5636 5633 5630 5627 5624 5621 5618 5615 5612 5609 5607 5604 5601
5722 5720 5718 5716 5714 5711 5709 5706 5703 5701 5698 5695 5692 5689 5686 5682 5679 5675 5672 5669 5666 5663 5659 5656 5653 5649 5646 5642 5639 5636 5633 5630 5627 5624 5620 5617 5614 5611 5609 5606 5603 5600 5597
5717 5715 5713 5711 5709 5707 5704 5702 5699 5697 5694 5691 5689 5686 5682 5679 5675 5672 5669 5666 5663 5659 5656 5653 5649 5646 5643 5639 5635 5632 5629 5626 5623 5620 5616 5613 5610 5607 5604 5602 5599 5596 5593
5711 5710 5708 5706 5704 5702 5699 5697 5695 5692 5690 5687 5685 5682 5679 5675 5672 5669 5666 5663 5659 5656 5653 5650 5647 5643 5639 5636 5632 5629 5625 5622 5619 5616 5613 5609 5606 5603 5600 5598 5595 5592 5589
5706 5704 5702 5700 5698 5696 5694 5692 5690 5688 5685 5683 5680 5678 5675 5672 5669 5666 5663 5660 5657 5654 5651 5647 5643 5640 5636 5633 5629 5625 5622 5619 5615 5612 5609 5605 5603 5599 5596 5593 5590 5587 5584
5699 5698 5696 5695 5693 5691 5689 5687 5685 5683 5681 5679 5676 5674 5671 5669 5666 5663 5660 5657 5654 5651 5648 5644 5640 5637 5633 5629 5625 5622 5618 5615 5611 5608 5604 5601 5598 5595 5592 5588 5586 5583 5580
5694 5692 5691 5689 5687 5685 5683 5682 5680 5678 5676 5674 5672 5669 5667 5665 5662 5660 5657 5654 5651 5648 5645 5641 5637 5634 5630 5625 5622 5618 5614 5611 5607 5603 5600 5596 5593 5590 5587 5584 5581 5578 5576
5688 5687 5685 5684 5681 5680 5678 5677 5675 5673 5671 5670 5668 5665 5663 5661 5659 5656 5654 5651 5648 5644 5641 5638 5634 5630 5626 5622 5617 5614 5610 5606 5602 5599 5595 5592 5589 5586 5583 5580 5577 5574 5572
5683 5682 5680 5679 5677 5675 5674 5672 5671 5669 5667 5666 5664 5661 5659 5657 5654 5652 5649 5647 5644 5640 5637 5634 5630 5626 5621 5617 5613 5609 5605 5601 5598 5595 5591 5588 5584 5581 5578 5575 5572 5570 5567
5678 5677 5675 5673 5672 5670 5669 5668 5666 5664 5663 5661 5659 5657 5655 5652 5650 5648 5645 5642 5639 5636 5633 5629 5625 5621 5617 5612 5608 5604 5600 5597 5594 5590 5587 5583 5580 5577 5574 5571 5568 5565 5563